This demonstration page uses our WeatherBlox Daily Observations layout. Learn more.

Left ArrowRight Arrow

39.08367, -84.50855

Hourly Observations for March 4, 2015

Temp ( °F °C ) Dew Point ( °F °C ) Humidity (%) Winds ( mph kmh ) Pressure ( in mb ) Visibility ( mi km ) Precip ( " mm )
12:29 am 00:29 Cloudy with Light Rain 41 5 40 4.4 96 96 VRB 6 9 29.91 1013 8 13 0.04 1.02
12:44 am 00:44 Cloudy with Light Rain 41 5 39 4 93 93 VRB 3 6 29.91 1013 6 10 N/A
12:53 am 00:53 Cloudy with Rain 40 4.4 39 3.9 97 97 N N/A 29.88 1012 6 10 0.08 2.03
1:27 am 01:27 Cloudy with Light Rain 39 3.9 38 3.3 96 96 SW 5 7 29.94 1014 6 10 0.05 1.27
1:53 am 01:53 Cloudy with Rain 38 3.3 38 3.3 100 100 N N/A 29.91 1013 4 6 0.12 3.05
2:23 am 02:23 Cloudy with Rain 38 3.3 38 3.3 100 100 VRB 5 7 29.91 1013 4 6 0.07 1.78
2:44 am 02:44 Cloudy with Rain 37 2.8 37 2.8 100 100 N N/A 29.94 1014 3 5 0.12 3.05
2:51 am 02:51 Cloudy with Light Rain 37 3 37 3 100 100 N N/A 29.94 1014 4 6 0.12 3.05
2:53 am 02:53 Cloudy with Light Rain 37 2.8 37 2.8 100 100 N N/A 29.90 1013 5 8 0.12 3.05
3:10 am 03:10 Cloudy with Rain 36 2 36 2 100 100 W 3 6 29.94 1014 2 3 N/A
3:22 am 03:22 Cloudy with Light Rain 37 2.8 37 2.8 100 100 NNW 7 11 29.94 1014 3 5 0.04 1.02
3:24 am 03:24 Cloudy with Rain 37 3 37 3 100 100 N 6 9 29.94 1014 3 5 N/A
3:53 am 03:53 Cloudy with Rain 38 3.3 36 2.2 93 93 NNW 5 7 29.92 1013 4 6 0.11 2.79
4:07 am 04:07 Cloudy with Rain 38 3.3 36 2.2 93 93 N N/A 29.91 1013 4 6 0.04 1.02
4:14 am 04:14 Cloudy with Rain 37 3 36 2 93 93 NNW 3 6 29.94 1014 4 6 N/A
4:49 am 04:49 Cloudy with Rain 37 3 37 3 100 100 N 3 6 29.94 1014 3 5 0.17 4.32
4:51 am 04:51 Cloudy with Rain 36 2 36 2 100 100 N 6 9 29.94 1014 4 6 0.18 4.57
4:53 am 04:53 Cloudy with Rain 36 2.2 36 2.2 100 100 N 5 7 29.91 1013 4 6 0.18 4.57
5:16 am 05:16 Cloudy with Light Rain 36 2 36 2 100 100 N N/A 29.94 1014 4 6 N/A
5:53 am 05:53 Cloudy with Light Rain 35 1.7 35 1.7 100 100 N N/A 29.94 1014 3 4 0.07 1.78
6:15 am 06:15 Cloudy with Light Rain 35 1.7 35 1.7 100 100 NNE 3 6 29.94 1014 3 5 0.01 0.25
6:39 am 06:39 Cloudy with Light Rain 34 1.1 34 1.1 100 100 N N/A 29.94 1014 2 3 0.02 0.51
6:53 am 06:53 Cloudy with Light Rain 34 1.1 34 1.1 100 100 SE 3 6 29.96 1015 3 5 0.02 0.51
7:15 am 07:15 Cloudy with Light Rain 34 1.1 34 1.1 100 100 N N/A 29.97 1015 3 5 0.01 0.25
7:53 am 07:53 Cloudy with Light Rain 35 1.7 35 1.7 100 100 N N/A 29.98 1015 3 5 0.01 0.25
8:26 am 08:26 Cloudy with Mist and Fog 36 2 34 1 93 93 NW 7 11 30.00 1016 5 8 N/A
8:53 am 08:53 Cloudy with Mist and Fog 35 1.7 34 1.1 96 96 NNW 9 15 29.99 1016 5 8 N/A
9:20 am 09:20 Cloudy 36 2 34 1 93 93 NW 7 11 30.00 1016 7 11 N/A
9:53 am 09:53 Cloudy with Mist and Fog 36 2.2 33 0.6 89 89 NW 3 6 30.00 1016 5 8 0.01 0.25
10:53 am 10:53 Cloudy 36 2.2 32 undefined 86 86 NNW 7 11 30.01 1016 9 14 N/A
11:53 am 11:53 Cloudy 36 2.2 31 -0.6 82 82 NW 6 9 30.04 1017 9 14 N/A
12:53 pm 12:53 Cloudy 37 2.8 31 -0.6 79 79 NNW 6 9 30.04 1017 9 14 N/A
1:16 pm 13:16 Mostly Cloudy 37 3 30 -1 75 75 N 8 13 30.03 1017 9 14 N/A
1:44 pm 13:44 Cloudy 37 2.8 30 -1.1 76 76 NW 9 15 30.03 1017 9 14 N/A
2:33 pm 14:33 Cloudy with Light Rain 36 2.2 30 -1.1 79 79 NNW 12 19 30.03 1017 8 13 N/A
2:53 pm 14:53 Cloudy with Light Snow 36 2.2 30 -1.1 79 79 N 8 13 30.03 1017 6 10 N/A
3:03 pm 15:03 Cloudy with Light Snow 35 1.7 30 -1.1 82 82 NNW 7 11 30.03 1017 3 5 N/A
3:04 pm 15:04 Cloudy with Light Snow 36 2 30 -1 81 81 N 7 11 30.03 1017 2 3 N/A
3:46 pm 15:46 Cloudy with Light Snow 34 1 32 undefined 93 93 NNW 5 7 30.00 1016 2 2 N/A
3:53 pm 15:53 Cloudy with Light Snow 33 0.6 32 undefined 96 96 NNW 6 9 30.02 1017 2 2 0.03 0.76
4:13 pm 16:13 Cloudy with Light Snow 33 0.6 31 -0.6 92 92 NNW 8 13 30.00 1016 2 2 N/A
4:26 pm 16:26 Cloudy with Light Snow 34 1 32 undefined 93 93 NW 8 13 30.03 1017 2 2 N/A
4:43 pm 16:43 Cloudy with Light Snow 32 undefined 31 -0.6 96 96 NNW 7 11 30.06 1018 1 2 0.01 0.25
4:53 pm 16:53 Cloudy with Light Snow 32 undefined 31 -0.6 96 96 NW 8 13 30.06 1018 1 2 0.02 0.51
5:01 pm 17:01 Cloudy with Light Snow 32 undefined 30 -1 93 93 NNW 9 15 30.06 1018 1 1 N/A
5:16 pm 17:16 Cloudy with Light Snow 32 undefined 30 -1 93 93 NNW 10 17 30.06 1018 1 1 N/A
5:53 pm 17:53 Cloudy with Snow 30 -1 30 -1 100 100 W 5 7 30.12 1020 1 1 N/A
6:20 pm 18:20 Cloudy with Light Snow 31 -0.6 29 -1.7 92 92 NNW 10 17 30.12 1020 2 2 0.01 0.25
6:53 pm 18:53 Cloudy with Light Snow 30 -1.1 28 -2.2 92 92 NW 9 15 30.13 1020 1 1 0.03 0.76
7:10 pm 19:10 Mostly Cloudy with Light Snow 30 -1 28 -2 93 93 NNW 9 15 30.15 1021 1 2 N/A
7:11 pm 19:11 Cloudy with Light Snow 30 -1 28 -2 93 93 NNW 9 15 30.15 1021 1 2 N/A
7:35 pm 19:35 Cloudy with Light Snow 29 -1.7 27 -2.8 92 92 NW 12 19 30.18 1022 1 1 0.02 0.51
7:53 pm 19:53 Mostly Cloudy with Light Snow 28 -2.2 26 -3.3 92 92 NNW 13 20 30.17 1022 1 1 0.03 0.76
8:05 pm 20:05 Cloudy with Light Snow 28 -2.2 26 -3.3 92 92 NNW 10 17 30.18 1022 1 2 0.01 0.25
8:20 pm 20:20 Cloudy with Light Snow 28 -2 27 -3 93 93 N 12 19 30.21 1023 1 1 N/A
8:30 pm 20:30 Cloudy with Light Snow 28 -2 27 -3 93 93 N 13 20 30.21 1023 1 1 N/A
8:53 pm 20:53 Cloudy with Light Snow 27 -2.8 25 -3.9 92 92 N 13 20 30.19 1022 1 1 0.04 1.02
9:17 pm 21:17 Cloudy with Light Snow 27 -3 25 -4 93 93 NNW 12 19 30.24 1024 1 2 N/A
9:53 pm 21:53 Cloudy with Light Snow 26 -3.3 24 -4.4 92 92 N 10 17 30.22 1023 2 2 0.01 0.25
10:53 pm 22:53 Mostly Cloudy with Light Snow 25 -3.9 22 -5.6 88 88 N 14 22 30.24 1024 1 2 0.01 0.25
11:09 pm 23:09 Mostly Cloudy with Light Snow 23 -5 20 -6.7 88 88 N 15 24 30.27 1025 1 1 N/A

Powered by AerisWeather